Location: Unspecified
(0.0000°N, 0.0000°E)
Time: 18:49:27
(UTC+00:00)

SR - Pass Details

Date: 01 August 2021
Orbit: 581 x 874 km, 66.7° (Epoch: 26 September)

Event Time Altitude Azimuth Distance (km) Brightness Sun altitude
Exits shadow 03:37:24 19° 134° (SE) 1,936 ? -35.2°
Maximum altitude 03:39:11 22° 110° (ESE) 1,808 ? -34.7°
Drops below altitude 10° 03:43:34 10° 61° (ENE) 2,514 ? -33.7°
Sets 03:46:36 0° 46° (NE) 3,441 ? -33.0°
